This is the latest recevied weather packets stored in our database for station/object DH0DM-13. If no packets are shown the sender has not sent any weather packets the latest 10 day(s).
| Time | Temp. | Humidity | Pressure | Rain* | Wind** | Luminosity | Snow |
|---|---|---|---|---|---|---|---|
| 1787959530 | 18.89° C | 82% | 986.4 hPa | 0.76 mm | 1.79 m/s, 102° | - | - |
| 1787958929 | 19.44° C | 79% | 986.8 hPa | 0.51 mm | 3.58 m/s, 244° | - | - |
| 1787958328 | 19.44° C | 80% | 986.3 hPa | 0.51 mm | 0.45 m/s, 232° | - | - |
| 1787957728 | 20.56° C | 80% | 986.4 hPa | 0.25 mm | 5.36 m/s, 199° | - | - |
| 1787957127 | 21.11° C | 76% | 986.1 hPa | 0 mm | 2.24 m/s, 221° | - | - |
| 1787956526 | 21.11° C | 76% | 986 hPa | 0 mm | 0 m/s | - | - |
| 1787955925 | 21.67° C | 75% | 986.3 hPa | 0 mm | 4.02 m/s, 238° | - | - |
| 1787955324 | 21.67° C | 74% | 986.5 hPa | 0 mm | 6.26 m/s, 4° | - | - |
| 1787954723 | 21.67° C | 73% | 986.5 hPa | 0 mm | 9.39 m/s, 252° | - | - |
| 1787954122 | 21.67° C | 72% | 986.4 hPa | 4.57 mm | 4.02 m/s, 255° | - | - |
| 1787953521 | 21.67° C | 72% | 986.1 hPa | 4.57 mm | 7.15 m/s, 271° | - | - |
| 1787952920 | 22.22° C | 71% | 986.1 hPa | 4.57 mm | 2.68 m/s, 143° | - | - |
| 1787952319 | 22.22° C | 71% | 986.2 hPa | 4.57 mm | 5.36 m/s, 205° | - | - |
| 1787951718 | 22.22° C | 71% | 986.3 hPa | 4.57 mm | 2.24 m/s, 217° | - | - |
| 1787951117 | 21.67° C | 71% | 985.7 hPa | 4.57 mm | 2.24 m/s, 190° | - | - |
| 1787950517 | 21.67° C | 72% | 985.9 hPa | 4.57 mm | 1.34 m/s, 111° | - | - |
| 1787949916 | 21.11° C | 74% | 986 hPa | 4.57 mm | 4.02 m/s, 225° | - | - |
| 1787949315 | 21.11° C | 75% | 985.7 hPa | 4.57 mm | 1.79 m/s, 155° | - | - |
| 1787948714 | 21.11° C | 75% | 985.9 hPa | 4.57 mm | 1.34 m/s, 115° | - | - |
| 1787948113 | 21.11° C | 75% | 985.8 hPa | 4.57 mm | 0.89 m/s, 219° | - | - |
| 1787947512 | 21.11° C | 75% | 985.7 hPa | 4.57 mm | 0 m/s | - | - |
| 1787946910 | 21.11° C | 75% | 985 hPa | 4.57 mm | 3.58 m/s, 146° | - | - |
| 1787946309 | 21.67° C | 75% | 984.9 hPa | 4.57 mm | 0.45 m/s, 281° | - | - |
| 1787945708 | 21.67° C | 75% | 984.7 hPa | 4.57 mm | 1.34 m/s, 209° | - | - |
| 1787945107 | 21.67° C | 74% | 984.5 hPa | 4.57 mm | 2.68 m/s, 275° | - | - |
* Rain since midnight (hover to see other rain measurements)
** Current wind speed in m/s (hover to see current wind gust speed)